Flag for U.S.A. Weather past 2 weeks in Portland, Maine, U.S.A.

Now
58 °F

Fog.


Feels Like: 58 °F
Forecast: 56 / 70 °F
Wind: 5 mph from South

Location: Portland - Portland International Jetport

Current Time: May 30, 2015 at 3:46:34 AM

Latest Report: May 30, 2015 at 2:58 AM


Visibility: 0 mi

Pressure: 30.19 "Hg

Humidity: 97%

Dew point: 57 °F

Location of PortlandLocation

Historic Weather in Portland — Graph

°F

Portland temperature yesterday

Maximum temperature yesterday: 76 °F (at 10:51 AM)
Minimum temperature yesterday: 59 °F (at 11:51 PM)
Average temperature yesterday: 67 °F

Past Weeks' High & Low Weather Summary

 TemperatureHumidityPressure
High91 °F (May 26, 3:51 PM)100% (May 17, 1:51 AM)30.31 "Hg (May 17, 1:51 AM)
Low40 °F (May 23, 4:51 AM)21% (May 23, 1:51 PM)29.64 "Hg (May 20, 1:51 AM)
Average61 °F64%30.07 "Hg
* Reported May 15 1:51 AM — May 30 1:51 AM, Portland, Weather by CustomWeather, © 2015

Note: Actual official high and low records may vary slightly from our data, if they occured in-between our weather recording intervals... More about our weather records

Advertising

Portland weather history for previous 24 hours

 ConditionsComfort  
Time TempWeatherWind HumidityBarometerVisibility
1:51 AM
Sat, May 30
59 °FFog.No wind96%30.21 "Hg1 mi
12:51 AM59 °FFog.No wind96%30.23 "Hg1 mi
11:51 PM
Fri, May 29
59 °FFog.9 mph93%30.25 "Hg1 mi
10:51 PM60 °FFog.7 mph93%30.25 "Hg1 mi
9:51 PM60 °FFog.7 mph96%30.26 "Hg1 mi
8:51 PM60 °FFog.7 mph96%30.25 "Hg0 mi
7:51 PM61 °FFog.9 mph93%30.26 "Hg0 mi
6:51 PM62 °FFog.6 mph90%30.26 "Hg1 mi
5:51 PM63 °FFog.9 mph90%30.27 "Hg1 mi
5:03 PM66 °FScattered clouds.12 mph81%30.28 "Hg10 mi
4:51 PM67 °FScattered clouds.9 mph79%30.28 "Hg10 mi
3:51 PM70 °FPassing clouds.13 mph71%30.29 "Hg10 mi
2:51 PM74 °FPassing clouds.9 mph67%30.28 "Hg10 mi
1:51 PM74 °FScattered clouds.10 mph64%30.28 "Hg10 mi
12:51 PM76 °FPartly sunny.10 mph62%30.28 "Hg10 mi
11:51 AM76 °FBroken clouds.6 mph60%30.29 "Hg10 mi
10:51 AM76 °FBroken clouds.6 mph62%30.30 "Hg10 mi
9:51 AM74 °FScattered clouds.No wind64%30.30 "Hg10 mi
8:51 AM72 °FScattered clouds.10 mph68%30.29 "Hg10 mi
7:51 AM71 °FPassing clouds.8 mph71%30.28 "Hg10 mi
6:51 AM69 °FPassing clouds.9 mph70%30.27 "Hg10 mi
5:51 AM65 °FPassing clouds.9 mph78%30.26 "Hg10 mi
4:51 AM64 °FPassing clouds.7 mph84%30.23 "Hg10 mi
3:51 AM64 °FOvercast.5 mph84%30.21 "Hg10 mi
Weather by CustomWeather, © 2015

See weather overviewHow to use our weather pages